RYR86DZ EBCI-LFMU

Flight info

Callsign RYR86DZ
Flight time 1h 20m
Altitude 31000
Route CIV N872 LESDO DCT KOVIN DCT DUCRA UM728 RESMI UN857 DISAK DCT DIRMO DCT ETAMO DCT ADEKA DCT MOKDI DCT MEN J27 AFRIC
Aircraft B738/M-SDE3FGILRWY/SB1

Departure

Time 2026-04-28 08:22
Airport Brussels South Charleroi Airport (EBCI)

Arrival

Time 2026-04-28 09:42
Airport Béziers Vias airport (LFMU)
Time Latitude Longitude Altitude Speed Heading
2026-04-28 07:58 50.46737 4.46636 585 ft 0 kts 335°
2026-04-28 08:14 50.46720 4.46649 585 ft 4 kts 335°
2026-04-28 08:14 50.46700 4.46664 586 ft 4 kts 317°
2026-04-28 08:15 50.46691 4.46693 587 ft 4 kts 250°
2026-04-28 08:15 50.46701 4.46727 587 ft 2 kts 245°
2026-04-28 08:15 50.46701 4.46728 587 ft 2 kts 245°
2026-04-28 08:17 50.46700 4.46724 587 ft 2 kts 245°
2026-04-28 08:17 50.46683 4.46665 587 ft 10 kts 245°
2026-04-28 08:18 50.46650 4.46554 588 ft 12 kts 238°
2026-04-28 08:18 50.46577 4.46556 590 ft 11 kts 159°
2026-04-28 08:18 50.46516 4.46495 588 ft 13 kts 246°
2026-04-28 08:18 50.46469 4.46329 589 ft 20 kts 245°
2026-04-28 08:19 50.46401 4.46098 591 ft 26 kts 245°
2026-04-28 08:19 50.46327 4.45841 596 ft 27 kts 245°
2026-04-28 08:19 50.46246 4.45562 599 ft 28 kts 245°
2026-04-28 08:19 50.46168 4.45295 598 ft 26 kts 245°
2026-04-28 08:20 50.46095 4.45046 595 ft 24 kts 245°
2026-04-28 08:20 50.46036 4.44843 596 ft 14 kts 245°
2026-04-28 08:20 50.45972 4.44771 595 ft 12 kts 177°
2026-04-28 08:20 50.45894 4.44815 596 ft 12 kts 157°
2026-04-28 08:21 50.45863 4.44880 594 ft 9 kts 72°
2026-04-28 08:21 50.45924 4.45076 592 ft 48 kts 65°
2026-04-28 08:21 50.46164 4.45903 592 ft 118 kts 66°
2026-04-28 08:21 50.46575 4.47324 812 ft 156 kts 64°
2026-04-28 08:22 50.47056 4.48844 1762 ft 152 kts 53°
2026-04-28 08:22 50.47884 4.49948 2465 ft 170 kts 37°
2026-04-28 08:22 50.48879 4.51175 2935 ft 193 kts 53°
2026-04-28 08:22 50.49729 4.52858 3583 ft 203 kts 54°
2026-04-28 08:23 50.50618 4.54649 4200 ft 215 kts 54°
2026-04-28 08:23 50.51545 4.56533 5020 ft 220 kts 54°
2026-04-28 08:23 50.52704 4.58103 5903 ft 228 kts 24°
2026-04-28 08:23 50.54295 4.58409 6750 ft 238 kts 355°
2026-04-28 08:24 50.55875 4.57524 7525 ft 248 kts 328°
2026-04-28 08:24 50.57068 4.55534 8284 ft 259 kts 299°
2026-04-28 08:24 50.57635 4.52708 8610 ft 285 kts 277°
2026-04-28 08:24 50.57715 4.49538 9322 ft 294 kts 265°
2026-04-28 08:25 50.57102 4.46490 10116 ft 297 kts 233°
2026-04-28 08:25 50.55633 4.44192 10711 ft 306 kts 217°
2026-04-28 08:25 50.53909 4.42001 10915 ft 331 kts 216°
2026-04-28 08:26 50.50106 4.37277 11912 ft 357 kts 217°
2026-04-28 08:26 50.48167 4.34845 12831 ft 356 kts 217°
2026-04-28 08:26 50.46236 4.32406 13789 ft 356 kts 217°
2026-04-28 08:26 50.44302 4.29952 14487 ft 359 kts 218°
2026-04-28 08:27 50.42388 4.27517 15576 ft 347 kts 218°
2026-04-28 08:27 50.40551 4.25172 16812 ft 337 kts 217°
2026-04-28 08:27 50.38735 4.22857 17679 ft 337 kts 217°
2026-04-28 08:27 50.36881 4.20498 18011 ft 353 kts 217°
2026-04-28 08:28 50.34925 4.18012 18212 ft 369 kts 217°
2026-04-28 08:28 50.32907 4.15448 18669 ft 377 kts 217°
2026-04-28 08:28 50.30867 4.12856 19288 ft 379 kts 217°
2026-04-28 08:28 50.28819 4.10253 19946 ft 379 kts 218°
2026-04-28 08:29 50.26766 4.07647 20546 ft 382 kts 218°
2026-04-28 08:29 50.24694 4.05021 21109 ft 385 kts 218°
2026-04-28 08:29 50.22605 4.02377 21683 ft 388 kts 218°
2026-04-28 08:29 50.20505 3.99722 22243 ft 390 kts 218°
2026-04-28 08:30 50.18389 3.97050 22794 ft 393 kts 219°
2026-04-28 08:30 50.16257 3.94362 23335 ft 395 kts 219°
2026-04-28 08:30 50.14111 3.91659 23833 ft 398 kts 219°
2026-04-28 08:30 50.11952 3.88943 24275 ft 400 kts 219°
2026-04-28 08:31 50.09792 3.86229 24818 ft 399 kts 219°
2026-04-28 08:31 50.07626 3.83511 25246 ft 401 kts 219°
2026-04-28 08:31 50.05444 3.80777 25606 ft 405 kts 219°
2026-04-28 08:31 50.03244 3.78022 25993 ft 407 kts 220°
2026-04-28 08:32 50.01033 3.75257 26390 ft 409 kts 220°
2026-04-28 08:32 49.98808 3.72479 26785 ft 411 kts 220°
2026-04-28 08:32 49.96571 3.69689 27178 ft 413 kts 220°
2026-04-28 08:32 49.94331 3.66898 27679 ft 412 kts 220°
2026-04-28 08:33 49.92103 3.64127 28274 ft 409 kts 220°
2026-04-28 08:33 49.89890 3.61378 28874 ft 406 kts 220°
2026-04-28 08:33 49.87690 3.58650 29473 ft 404 kts 220°
2026-04-28 08:33 49.85502 3.55939 29991 ft 403 kts 220°
2026-04-28 08:34 49.83314 3.53231 30409 ft 403 kts 220°
2026-04-28 08:34 49.81151 3.50555 30714 ft 404 kts 220°
2026-04-28 08:34 49.78946 3.47831 30980 ft 407 kts 220°
2026-04-28 08:34 49.76720 3.45084 31123 ft 412 kts 220°
2026-04-28 08:35 49.74474 3.42315 31126 ft 414 kts 220°
2026-04-28 08:35 49.70000 3.36813 31118 ft 406 kts 220°
2026-04-28 08:36 49.65598 3.31411 31116 ft 403 kts 220°
2026-04-28 08:36 49.61209 3.26035 31121 ft 402 kts 220°
2026-04-28 08:37 49.56822 3.20674 31125 ft 403 kts 220°
2026-04-28 08:37 49.53167 3.16216 31121 ft 403 kts 220°
2026-04-28 08:38 49.48759 3.10862 31127 ft 404 kts 219°
2026-04-28 08:38 49.44105 3.05961 31107 ft 406 kts 216°
2026-04-28 08:39 49.39368 3.01220 31108 ft 406 kts 216°
2026-04-28 08:39 49.34637 2.96468 31110 ft 406 kts 216°
2026-04-28 08:40 49.29917 2.91707 31105 ft 406 kts 216°
2026-04-28 08:40 49.25200 2.86947 31093 ft 406 kts 216°
2026-04-28 08:41 49.20488 2.82203 31096 ft 405 kts 216°
2026-04-28 08:41 49.15792 2.77486 31101 ft 403 kts 216°
2026-04-28 08:42 49.11107 2.72790 31099 ft 402 kts 216°
2026-04-28 08:42 49.06431 2.68114 31101 ft 401 kts 216°
2026-04-28 08:43 49.01763 2.63456 31126 ft 400 kts 217°
2026-04-28 08:43 48.97101 2.58815 31106 ft 400 kts 216°
2026-04-28 08:44 48.92440 2.54189 31099 ft 400 kts 216°
2026-04-28 08:44 48.87775 2.49569 31103 ft 400 kts 216°
2026-04-28 08:45 48.83139 2.44987 31105 ft 400 kts 216°
2026-04-28 08:45 48.78468 2.40380 31103 ft 401 kts 216°
2026-04-28 08:46 48.73793 2.35778 31106 ft 401 kts 216°
2026-04-28 08:46 48.69113 2.31182 31105 ft 401 kts 216°
2026-04-28 08:47 48.64429 2.26590 31101 ft 401 kts 216°
2026-04-28 08:47 48.59743 2.22010 31094 ft 401 kts 216°
2026-04-28 08:48 48.54652 2.18442 31104 ft 409 kts 201°
2026-04-28 08:48 48.49059 2.16603 31079 ft 412 kts 197°
2026-04-28 08:49 48.43449 2.14854 31087 ft 411 kts 197°
2026-04-28 08:49 48.37858 2.13064 31078 ft 410 kts 197°
2026-04-28 08:50 48.32279 2.11267 31079 ft 410 kts 197°
2026-04-28 08:50 48.26565 2.10362 31077 ft 420 kts 183°
2026-04-28 08:51 48.20716 2.11553 31077 ft 425 kts 177°
2026-04-28 08:51 48.14875 2.12851 31068 ft 424 kts 178°
2026-04-28 08:52 48.09046 2.13603 31069 ft 419 kts 184°
2026-04-28 08:52 48.03225 2.13870 31074 ft 418 kts 185°
2026-04-28 08:53 47.97403 2.14135 31064 ft 419 kts 185°
2026-04-28 08:53 47.91580 2.14450 31069 ft 418 kts 185°
2026-04-28 08:54 47.85771 2.14786 31075 ft 418 kts 185°
2026-04-28 08:54 47.79968 2.15127 31060 ft 417 kts 185°
2026-04-28 08:55 47.74187 2.15467 31052 ft 414 kts 185°
2026-04-28 08:55 47.68438 2.15803 31050 ft 412 kts 185°
2026-04-28 08:56 47.62724 2.16134 31057 ft 410 kts 185°
2026-04-28 08:56 47.57065 2.16461 31030 ft 409 kts 185°
2026-04-28 08:57 47.51384 2.16789 31051 ft 408 kts 186°
2026-04-28 08:57 47.45706 2.17116 31049 ft 408 kts 186°
2026-04-28 08:58 47.40026 2.17442 31054 ft 409 kts 186°
2026-04-28 08:58 47.34336 2.17769 31043 ft 409 kts 186°
2026-04-28 08:59 47.28651 2.18096 31047 ft 409 kts 186°
2026-04-28 08:59 47.22955 2.18421 31049 ft 409 kts 186°
2026-04-28 09:00 47.17258 2.18747 31046 ft 410 kts 186°
2026-04-28 09:00 47.11560 2.19078 31042 ft 410 kts 184°
2026-04-28 09:01 47.05869 2.20857 31045 ft 430 kts 167°
2026-04-28 09:01 47.00310 2.24181 31038 ft 432 kts 166°
2026-04-28 09:02 46.94748 2.27503 31022 ft 432 kts 166°
2026-04-28 09:02 46.89175 2.30759 31032 ft 431 kts 166°
2026-04-28 09:03 46.83579 2.33825 31042 ft 425 kts 172°
2026-04-28 09:03 46.77884 2.36036 31046 ft 423 kts 174°
2026-04-28 09:04 46.72175 2.38112 31050 ft 423 kts 174°
2026-04-28 09:04 46.66467 2.40241 31036 ft 424 kts 173°
2026-04-28 09:05 46.60763 2.42411 31040 ft 424 kts 173°
2026-04-28 09:05 46.55055 2.44595 31046 ft 424 kts 173°
2026-04-28 09:06 46.49345 2.46777 31041 ft 425 kts 173°
2026-04-28 09:06 46.43618 2.48959 31052 ft 426 kts 173°
2026-04-28 09:07 46.37869 2.51145 31044 ft 428 kts 173°
2026-04-28 09:07 46.32093 2.53337 31030 ft 430 kts 173°
2026-04-28 09:08 46.26303 2.55530 31049 ft 431 kts 173°
2026-04-28 09:08 46.20538 2.57708 31047 ft 432 kts 173°
2026-04-28 09:09 46.14723 2.59901 31042 ft 432 kts 173°
2026-04-28 09:09 46.08912 2.62088 31041 ft 431 kts 173°
2026-04-28 09:10 46.03112 2.64266 31041 ft 430 kts 173°
2026-04-28 09:10 45.97321 2.66435 31048 ft 429 kts 173°
2026-04-28 09:11 45.91547 2.68593 31037 ft 428 kts 172°
2026-04-28 09:11 45.85786 2.70741 31043 ft 428 kts 173°
2026-04-28 09:12 45.80006 2.72453 31041 ft 418 kts 183°
2026-04-28 09:12 45.74210 2.72845 31038 ft 417 kts 185°
2026-04-28 09:13 45.68415 2.73176 31030 ft 418 kts 184°
2026-04-28 09:13 45.62595 2.73562 31053 ft 420 kts 184°
2026-04-28 09:14 45.56741 2.73985 31035 ft 422 kts 183°
2026-04-28 09:14 45.50869 2.74421 31038 ft 424 kts 183°
2026-04-28 09:15 45.44966 2.74859 31050 ft 426 kts 183°
2026-04-28 09:15 45.39039 2.75299 31056 ft 427 kts 183°
2026-04-28 09:16 45.33134 2.75735 31038 ft 428 kts 183°
2026-04-28 09:16 45.27184 2.76175 31054 ft 428 kts 183°
2026-04-28 09:17 45.21238 2.76613 31046 ft 428 kts 183°
2026-04-28 09:17 45.15308 2.77050 31005 ft 421 kts 182°
2026-04-28 09:17 45.12404 2.77266 30700 ft 414 kts 182°
2026-04-28 09:18 45.09553 2.77482 30344 ft 408 kts 182°
2026-04-28 09:18 45.06713 2.77882 29790 ft 411 kts 178°
2026-04-28 09:18 45.03893 2.78461 29255 ft 410 kts 176°
2026-04-28 09:18 45.01083 2.79105 28753 ft 408 kts 176°
2026-04-28 09:19 44.98290 2.79756 28286 ft 405 kts 176°
2026-04-28 09:19 44.95523 2.80390 27783 ft 401 kts 176°
2026-04-28 09:19 44.92770 2.81006 27307 ft 399 kts 176°
2026-04-28 09:19 44.90037 2.81603 26871 ft 396 kts 176°
2026-04-28 09:20 44.87319 2.82187 26444 ft 393 kts 176°
2026-04-28 09:20 44.84622 2.82760 25994 ft 391 kts 176°
2026-04-28 09:20 44.81920 2.83330 25372 ft 394 kts 176°
2026-04-28 09:20 44.79211 2.83899 24900 ft 393 kts 176°
2026-04-28 09:21 44.76506 2.84468 24458 ft 392 kts 176°
2026-04-28 09:21 44.73814 2.85034 24019 ft 390 kts 176°
2026-04-28 09:21 44.71131 2.85598 23589 ft 389 kts 176°
2026-04-28 09:21 44.68455 2.86159 23082 ft 388 kts 176°
2026-04-28 09:22 44.65794 2.86719 22628 ft 385 kts 176°
2026-04-28 09:22 44.63157 2.87273 22198 ft 381 kts 176°
2026-04-28 09:22 44.60548 2.87820 21777 ft 377 kts 176°
2026-04-28 09:22 44.57969 2.88360 21365 ft 373 kts 176°
2026-04-28 09:23 44.55410 2.88895 20946 ft 370 kts 175°
2026-04-28 09:23 44.52877 2.89423 20551 ft 366 kts 175°
2026-04-28 09:23 44.50364 2.89947 20152 ft 363 kts 175°
2026-04-28 09:23 44.48713 2.90292 19897 ft 361 kts 175°
2026-04-28 09:24 44.46236 2.90808 19496 ft 359 kts 175°
2026-04-28 09:24 44.43776 2.91320 19097 ft 356 kts 175°
2026-04-28 09:24 44.41332 2.91827 18719 ft 354 kts 175°
2026-04-28 09:24 44.38905 2.92331 18322 ft 352 kts 175°
2026-04-28 09:25 44.36486 2.92833 17866 ft 350 kts 175°
2026-04-28 09:25 44.34085 2.93331 17458 ft 347 kts 175°
2026-04-28 09:25 44.31705 2.93824 17062 ft 345 kts 175°
2026-04-28 09:25 44.29342 2.94314 16676 ft 342 kts 175°
2026-04-28 09:26 44.27001 2.94798 16301 ft 339 kts 175°
2026-04-28 09:26 44.24679 2.95279 15923 ft 337 kts 175°
2026-04-28 09:26 44.22369 2.95755 15547 ft 334 kts 175°
2026-04-28 09:26 44.20076 2.96229 15176 ft 332 kts 175°
2026-04-28 09:27 44.15530 2.97166 14440 ft 328 kts 174°
2026-04-28 09:27 44.13277 2.97632 14075 ft 327 kts 174°
2026-04-28 09:27 44.11032 2.98103 13687 ft 325 kts 174°
2026-04-28 09:28 44.08804 2.98549 13325 ft 322 kts 175°
2026-04-28 09:28 44.06592 2.98945 12973 ft 319 kts 175°
2026-04-28 09:28 44.04398 2.99328 12606 ft 317 kts 175°
2026-04-28 09:28 44.02216 2.99708 12226 ft 314 kts 174°
2026-04-28 09:29 44.00058 3.00086 11899 ft 312 kts 174°
2026-04-28 09:29 43.97940 3.00457 11535 ft 310 kts 174°
2026-04-28 09:29 43.95781 3.00835 11175 ft 308 kts 174°
2026-04-28 09:29 43.93686 3.01202 10829 ft 307 kts 174°
2026-04-28 09:30 43.91567 3.01572 10482 ft 306 kts 173°
2026-04-28 09:30 43.89474 3.01937 10320 ft 299 kts 173°
2026-04-28 09:30 43.87438 3.02293 10176 ft 291 kts 173°
2026-04-28 09:30 43.85450 3.02641 9985 ft 285 kts 173°
2026-04-28 09:31 43.83485 3.02985 9657 ft 284 kts 173°
2026-04-28 09:31 43.81529 3.03325 9350 ft 282 kts 173°
2026-04-28 09:31 43.79588 3.03662 9044 ft 281 kts 173°
2026-04-28 09:31 43.77654 3.03998 8751 ft 279 kts 173°
2026-04-28 09:32 43.75736 3.04331 8445 ft 277 kts 173°
2026-04-28 09:32 43.73828 3.04662 8167 ft 275 kts 173°
2026-04-28 09:32 43.71932 3.04990 7876 ft 274 kts 173°
2026-04-28 09:32 43.70050 3.05316 7590 ft 272 kts 172°
2026-04-28 09:33 43.68172 3.05641 7299 ft 271 kts 173°
2026-04-28 09:33 43.66301 3.05965 7015 ft 270 kts 173°
2026-04-28 09:33 43.64440 3.06287 6713 ft 268 kts 172°
2026-04-28 09:33 43.62593 3.06605 6448 ft 267 kts 172°
2026-04-28 09:34 43.60753 3.06923 6145 ft 266 kts 172°
2026-04-28 09:34 43.58924 3.07238 5856 ft 264 kts 172°
2026-04-28 09:34 43.57105 3.07551 5568 ft 263 kts 172°
2026-04-28 09:34 43.55301 3.07861 5308 ft 260 kts 172°
2026-04-28 09:35 43.53539 3.08165 5210 ft 251 kts 172°
2026-04-28 09:35 43.51826 3.08458 5087 ft 245 kts 172°
2026-04-28 09:35 43.50154 3.08746 4973 ft 240 kts 172°
2026-04-28 09:35 43.48516 3.09027 4871 ft 234 kts 172°
2026-04-28 09:36 43.46914 3.09301 4749 ft 229 kts 172°
2026-04-28 09:36 43.45356 3.09567 4648 ft 222 kts 172°
2026-04-28 09:36 43.43836 3.09826 4472 ft 219 kts 172°
2026-04-28 09:36 43.42347 3.10081 4300 ft 212 kts 172°
2026-04-28 09:37 43.40903 3.10329 4074 ft 207 kts 172°
2026-04-28 09:37 43.39494 3.10572 3845 ft 201 kts 172°
2026-04-28 09:37 43.38123 3.10809 3630 ft 196 kts 172°
2026-04-28 09:37 43.36785 3.11041 3431 ft 192 kts 172°
2026-04-28 09:38 43.35467 3.11222 3256 ft 190 kts 174°
2026-04-28 09:38 43.34223 3.11782 3020 ft 193 kts 140°
2026-04-28 09:38 43.33560 3.13346 2853 ft 195 kts 101°
2026-04-28 09:38 43.33436 3.15212 2678 ft 197 kts 96°
2026-04-28 09:39 43.33336 3.17070 2471 ft 193 kts 96°
2026-04-28 09:39 43.33240 3.18886 2235 ft 189 kts 96°
2026-04-28 09:39 43.33145 3.20676 1991 ft 186 kts 95°
2026-04-28 09:39 43.33048 3.22424 1735 ft 182 kts 95°
2026-04-28 09:40 43.32954 3.24130 1489 ft 177 kts 95°
2026-04-28 09:40 43.32865 3.25783 1254 ft 169 kts 95°
2026-04-28 09:40 43.32781 3.27318 1052 ft 154 kts 95°
2026-04-28 09:40 43.32704 3.28713 891 ft 142 kts 96°
2026-04-28 09:41 43.32622 3.30075 701 ft 142 kts 96°
2026-04-28 09:41 43.32556 3.31408 513 ft 139 kts 96°
2026-04-28 09:41 43.32486 3.32735 319 ft 139 kts 96°
2026-04-28 09:41 43.32414 3.34061 121 ft 138 kts 96°
2026-04-28 09:42 43.32348 3.35286 57 ft 95 kts 94°
2026-04-28 09:42 43.32318 3.35792 53 ft 24 kts 96°
2026-04-28 09:42 43.32309 3.35862 53 ft 3 kts 44°
2026-04-28 09:42 43.32324 3.35847 50 ft 5 kts 288°
2026-04-28 09:43 43.32326 3.35755 48 ft 13 kts 271°
2026-04-28 09:43 43.32331 3.35606 52 ft 16 kts 275°
2026-04-28 09:43 43.32337 3.35480 52 ft 10 kts 274°
2026-04-28 09:43 43.32341 3.35404 57 ft 5 kts 274°
2026-04-28 09:44 43.32339 3.35358 57 ft 5 kts 244°
2026-04-28 09:44 43.32311 3.35338 58 ft 5 kts 193°
2026-04-28 09:44 43.32280 3.35332 58 ft 4 kts 185°
2026-04-28 09:44 43.32248 3.35329 57 ft 5 kts 184°
2026-04-28 09:45 43.32204 3.35325 58 ft 6 kts 184°
2026-04-28 09:45 43.32193 3.35324 57 ft 0 kts 183°
2026-04-28 09:45 43.32191 3.35325 57 ft 1 kts 173°
2026-04-28 09:46 43.32179 3.35346 51 ft 4 kts 119°
2026-04-28 09:46 43.32166 3.35348 54 ft 2 kts 189°
2026-04-28 09:46 43.32151 3.35345 57 ft 2 kts 186°
2026-04-28 09:46 43.32139 3.35344 57 ft 0 kts 185°
2026-04-28 09:47 43.32130 3.35337 58 ft 1 kts 229°
2026-04-28 09:47 43.32132 3.35329 52 ft 0 kts 294°
2026-04-28 09:48 43.32135 3.35326 53 ft 0 kts 313°
2026-04-28 09:57 43.32143 3.35315 49 ft 0 kts 127°